Tracking 29892 objects as of 21-Nov-2024
HD Live streaming from Space Station
objects crossing your sky now

STARLINK-5972

Track STARLINK-5972 now!
10-day predictions
STARLINK-5972 is classified as:


NORAD ID: 56362
Int'l Code: 2023-058AX
Perigee: 569.5 km
Apogee: 570.8 km
Inclination: 97.7 °
Period: 95.9 minutes
Semi major axis: 6941 km
RCS: Unknown
Launch date: April 27, 2023
Source: United States (US)
Launch site: AIR FORCE WESTERN TEST RANGE (AFWTR)
Your satellite tracking list
Your tracking list is empty




NASA's NSSDC Master Catalog

Two Line Element Set (TLE):
1 56362U 23058AX  24325.31583431  .00000076  00000-0  10514-4 0  9992
2 56362  97.6546 323.9830 0000932  98.2287 261.9043 15.01259357 86961
Source of the keplerian elements: AFSPC